Theta_e
355 353 353 354 353 348 348 350 350 348 346 346 345 345 344 343 342 344 342 340 339 337
352 353 351 351 348 346 347 345 346 345 344 343 342 342 341 339 339 340 338 336 337 337
349 347 343 342 341 341 341 341 339 339 339 339 340 339 340 339 338 336 335 336 334 334
339 338 338 338 338 339 340 339 336 337 336 334 333 333 333 331 331 328 329 330 328 327
335 335 332 330 330 330 329 330 329 329 327 326 326 327 325 323 323 322 321 321 323 322
330 329 328 328 328 327 326 325 323 323 321 319 318 319 318 313 312 312 313 316 318 319
325 325 324 323 322 321 321 320 319 319 317 316 314 311 310 309 308 309 310 313 314 315
322 321 320 319 320 320 319 318 317 316 316 316 306 303 304 306 306 306 306 310 314 315
319 319 319 319 318 317 316 316 315 314 312 312 303 299 300 301 303 305 307 308 312 312
316 315 315 315 314 314 314 314 312 312 311 304 301 297 297 300 303 308 308 309 309 308
312 310 311 311 311 312 312 311 311 311 308 305 299 297 296 296 307 308 308 309 308 308
308 308 308 308 309 310 311 312 310 308 307 305 300 295 295 297 304 305 305 307 305 303
307 307 306 308 309 310 309 306 306 304 305 303 300 294 294 295 301 300 301 307 300 297
307 307 309 308 307 307 305 305 304 304 303 304 302 296 294 294 297 296 298 300 301 299
Wind_Speed
9 5 7 7 5 4 5 5 6 7 7 6 6 5 5 4 4 4 4 5 4 3
9 8 9 11 10 8 9 7 7 6 7 6 4 4 5 3 3 4 3 4 4 3
13 12 13 12 12 10 10 8 8 7 6 4 5 4 3 1 1 3 4 4 5 4
14 14 13 12 10 8 8 8 9 6 5 5 6 6 6 6 5 6 5 5 6 7
14 14 14 13 11 10 9 8 7 6 5 5 5 5 5 8 9 8 8 8 7 6
16 15 14 12 10 9 9 8 8 6 7 7 8 8 10 10 10 11 10 9 8 7
15 14 13 12 11 10 9 7 7 6 7 8 10 11 11 10 9 10 10 10 7 7
15 14 13 12 10 9 8 7 8 7 7 7 11 9 9 8 8 8 9 10 9 6
15 13 11 11 9 8 9 8 8 7 7 9 9 9 12 10 8 8 8 8 8 6
13 12 10 10 11 8 8 7 6 6 6 13 10 12 12 11 6 5 7 8 6 7
13 12 10 11 9 7 6 5 4 5 12 9 10 11 15 18 6 5 6 4 3 3
11 10 10 9 7 6 4 4 8 9 10 9 9 14 13 11 8 5 6 7 8 10
10 9 10 7 6 5 7 8 7 8 7 10 7 9 10 12 8 9 7 3 7 12
7 9 8 8 8 6 7 6 6 5 5 5 5 5 7 12 8 7 7 6 4 3
Wind_Direction
153 133 135 164 118 75 87 114 94 72 74 67 50 49 34 20 10 358 358 338 340 327
142 135 106 92 92 81 89 90 88 72 71 56 44 39 22 28 358 337 340 319 323 310
110 106 94 88 92 94 99 102 95 81 76 83 82 58 355 31 100 16 334 336 338 339
107 103 101 101 99 93 99 105 104 121 119 95 70 34 14 358 29 7 1 346 6 0
110 106 98 94 89 81 77 71 63 58 63 62 59 57 26 19 12 3 360 357 353 354
102 102 100 98 94 91 83 71 54 44 44 36 19 13 52 32 12 359 346 343 344 334
106 102 95 89 82 75 63 61 65 41 45 37 41 43 30 25 6 353 339 326 324 315
104 97 92 88 84 77 63 47 45 38 35 38 65 40 26 8 357 337 318 310 302 15
103 103 102 97 86 70 60 45 34 30 28 40 68 39 32 16 334 321 309 301 27 54
104 98 91 82 71 58 57 45 35 27 29 70 58 28 11 359 324 329 13 16 26 0
82 75 69 67 61 50 51 45 39 42 70 74 52 29 19 346 359 5 356 341 357 2
75 75 68 63 60 54 58 66 64 61 51 62 54 35 10 351 324 9 342 0 20 82
65 71 72 65 75 61 55 58 64 74 66 81 77 46 13 11 360 9 345 24 75 53
59 96 86 72 69 62 74 76 70 83 111 104 89 69 50 30 12 10 337 345 11 77